QPF
0.00 0.00 0.00 0.00 0.00 0.00 0.00 0.00 0.00 0.00 0.00 0.00 0.00 0.00 0.00 0.00 0.00 0.00 0.00 0.00 0.00 0.00 0.00 0.00 0.00 0.00 0.00 0.01 0.00 0.00 0.00 0.00 0.00 0.00 0.01 0.01 0.01 0.01 0.00 0.00 0.00 0.00 0.01 0.01 0.01 0.01 0.01 0.00 0.00
0.00 0.00 0.00 0.00 0.00 0.00 0.00 0.00 0.00 0.00 0.00 0.00 0.00 0.00 0.00 0.00 0.00 0.00 0.00 0.00 0.00 0.00 0.00 0.00 0.00 0.00 0.00 0.00 0.00 0.00 0.00 0.00 0.00 0.00 0.00 0.00 0.00 0.00 0.00 0.00 0.00 0.00 0.01 0.01 0.00 0.00 0.00 0.00 0.00
0.00 0.00 0.00 0.00 0.00 0.00 0.00 0.00 0.00 0.00 0.00 0.00 0.00 0.00 0.00 0.00 0.00 0.00 0.00 0.00 0.00 0.00 0.00 0.00 0.00 0.00 0.00 0.00 0.00 0.00 0.00 0.00 0.00 0.00 0.00 0.00 0.00 0.00 0.00 0.00 0.00 0.01 0.01 0.01 0.00 0.00 0.00 0.00 0.00
0.00 0.00 0.00 0.00 0.00 0.00 0.00 0.00 0.00 0.00 0.00 0.00 0.00 0.00 0.00 0.00 0.00 0.00 0.00 0.00 0.00 0.00 0.00 0.00 0.00 0.00 0.00 0.00 0.00 0.00 0.00 0.00 0.00 0.00 0.00 0.00 0.00 0.00 0.00 0.00 0.01 0.01 0.00 0.00 0.00 0.00 0.00 0.00 0.00
0.00 0.00 0.00 0.00 0.00 0.00 0.00 0.00 0.00 0.00 0.00 0.00 0.00 0.00 0.00 0.00 0.00 0.00 0.00 0.00 0.00 0.00 0.00 0.00 0.00 0.00 0.00 0.00 0.00 0.00 0.00 0.00 0.00 0.00 0.00 0.00 0.00 0.00 0.00 0.01 0.01 0.00 0.00 0.00 0.00 0.00 0.00 0.00 0.00
0.00 0.00 0.00 0.00 0.00 0.00 0.00 0.00 0.00 0.00 0.00 0.00 0.00 0.00 0.00 0.00 0.00 0.00 0.00 0.00 0.00 0.00 0.00 0.00 0.00 0.00 0.00 0.00 0.00 0.00 0.00 0.00 0.00 0.00 0.00 0.00 0.00 0.00 0.00 0.01 0.01 0.01 0.01 0.01 0.00 0.00 0.00 0.00 0.00
0.00 0.00 0.00 0.00 0.00 0.00 0.00 0.00 0.00 0.00 0.00 0.00 0.00 0.00 0.00 0.00 0.00 0.00 0.00 0.00 0.00 0.00 0.00 0.00 0.00 0.00 0.00 0.00 0.00 0.00 0.00 0.00 0.00 0.00 0.00 0.00 0.00 0.00 0.00 0.01 0.01 0.01 0.01 0.01 0.00 0.00 0.00 0.00 0.00
0.00 0.00 0.00 0.00 0.00 0.00 0.00 0.00 0.00 0.00 0.00 0.00 0.00 0.00 0.00 0.00 0.00 0.00 0.00 0.00 0.00 0.00 0.00 0.00 0.00 0.00 0.00 0.00 0.00 0.00 0.00 0.00 0.00 0.00 0.00 0.00 0.00 0.00 0.00 0.00 0.01 0.01 0.00 0.00 0.00 0.00 0.00 0.00 0.00
0.00 0.00 0.00 0.00 0.00 0.00 0.00 0.00 0.00 0.00 0.00 0.00 0.00 0.00 0.00 0.00 0.00 0.00 0.00 0.00 0.00 0.00 0.00 0.00 0.00 0.00 0.00 0.00 0.00 0.00 0.00 0.00 0.00 0.00 0.00 0.00 0.00 0.00 0.00 0.00 0.00 0.00 0.00 0.00 0.00 0.00 0.00 0.00 0.00
0.00 0.00 0.00 0.00 0.00 0.00 0.00 0.00 0.00 0.00 0.00 0.00 0.00 0.00 0.00 0.00 0.00 0.00 0.00 0.00 0.00 0.00 0.00 0.00 0.00 0.00 0.00 0.00 0.00 0.00 0.00 0.00 0.00 0.00 0.00 0.00 0.00 0.00 0.00 0.00 0.00 0.00 0.00 0.00 0.00 0.00 0.00 0.00 0.00
0.00 0.00 0.00 0.00 0.00 0.00 0.00 0.00 0.00 0.00 0.00 0.00 0.00 0.00 0.00 0.00 0.00 0.00 0.00 0.00 0.00 0.00 0.00 0.00 0.00 0.00 0.00 0.00 0.00 0.00 0.00 0.00 0.00 0.00 0.00 0.00 0.00 0.00 0.00 0.00 0.00 0.00 0.00 0.00 0.00 0.00 0.00 0.00 0.00
0.00 0.00 0.00 0.00 0.00 0.00 0.00 0.00 0.00 0.00 0.00 0.00 0.00 0.00 0.00 0.00 0.00 0.00 0.00 0.00 0.00 0.00 0.00 0.00 0.00 0.00 0.00 0.00 0.00 0.00 0.00 0.00 0.00 0.00 0.00 0.00 0.01 0.00 0.00 0.01 0.01 0.01 0.01 0.01 0.01 0.01 0.00 0.00 0.00
0.00 0.00 0.00 0.00 0.00 0.00 0.00 0.00 0.00 0.00 0.00 0.00 0.00 0.00 0.00 0.00 0.00 0.00 0.00 0.00 0.00 0.00 0.00 0.00 0.00 0.00 0.00 0.00 0.00 0.00 0.00 0.00 0.00 0.00 0.01 0.01 0.01 0.01 0.01 0.01 0.02 0.02 0.02 0.02 0.02 0.01 0.01 0.00 0.00
0.00 0.00 0.00 0.00 0.00 0.00 0.00 0.00 0.00 0.00 0.00 0.00 0.00 0.00 0.00 0.00 0.00 0.00 0.00 0.00 0.00 0.00 0.00 0.00 0.00 0.00 0.00 0.00 0.00 0.00 0.00 0.00 0.00 0.00 0.01 0.01 0.01 0.02 0.02 0.02 0.03 0.03 0.03 0.04 0.03 0.03 0.02 0.01 0.00
0.00 0.00 0.00 0.00 0.00 0.00 0.00 0.00 0.00 0.00 0.00 0.00 0.00 0.00 0.00 0.00 0.00 0.00 0.00 0.00 0.00 0.00 0.00 0.00 0.00 0.00 0.00 0.00 0.00 0.00 0.00 0.00 0.00 0.01 0.01 0.01 0.02 0.02 0.03 0.04 0.04 0.04 0.03 0.04 0.04 0.04 0.04 0.03 0.02
0.00 0.00 0.00 0.00 0.00 0.00 0.00 0.00 0.00 0.00 0.00 0.00 0.00 0.00 0.00 0.00 0.00 0.00 0.00 0.00 0.00 0.00 0.00 0.00 0.00 0.00 0.00 0.00 0.00 0.00 0.01 0.01 0.01 0.02 0.02 0.04 0.05 0.06 0.07 0.08 0.09 0.08 0.07 0.08 0.08 0.08 0.07 0.06 0.05
0.00 0.00 0.00 0.00 0.00 0.00 0.00 0.00 0.00 0.00 0.00 0.00 0.00 0.00 0.00 0.00 0.00 0.00 0.00 0.00 0.00 0.00 0.00 0.00 0.00 0.00 0.00 0.00 0.00 0.01 0.03 0.04 0.06 0.07 0.08 0.09 0.11 0.13 0.15 0.17 0.17 0.16 0.16 0.16 0.14 0.14 0.11 0.10 0.09
0.00 0.00 0.00 0.00 0.00 0.00 0.00 0.00 0.00 0.00 0.00 0.00 0.00 0.00 0.00 0.00 0.00 0.00 0.00 0.00 0.00 0.00 0.00 0.00 0.00 0.00 0.01 0.01 0.02 0.04 0.07 0.12 0.18 0.18 0.16 0.17 0.18 0.20 0.24 0.25 0.28 0.28 0.28 0.25 0.23 0.21 0.18 0.15 0.11
0.00 0.00 0.00 0.00 0.00 0.00 0.00 0.00 0.00 0.00 0.00 0.00 0.00 0.00 0.00 0.00 0.00 0.00 0.00 0.00 0.00 0.00 0.00 0.00 0.00 0.01 0.02 0.04 0.07 0.11 0.18 0.25 0.29 0.28 0.30 0.33 0.37 0.40 0.40 0.39 0.39 0.36 0.34 0.32 0.28 0.24 0.20 0.17 0.13
0.00 0.00 0.00 0.00 0.00 0.00 0.00 0.00 0.00 0.00 0.00 0.00 0.00 0.00 0.00 0.00 0.00 0.00 0.00 0.00 0.00 0.00 0.00 0.01 0.01 0.02 0.04 0.09 0.15 0.25 0.34 0.40 0.41 0.43 0.49 0.59 0.65 0.64 0.61 0.57 0.51 0.44 0.40 0.37 0.31 0.27 0.20 0.14 0.09
0.00 0.00 0.00 0.00 0.00 0.00 0.00 0.00 0.00 0.00 0.00 0.00 0.00 0.00 0.00 0.00 0.00 0.00 0.00 0.00 0.00 0.00 0.00 0.01 0.02 0.03 0.05 0.13 0.23 0.34 0.39 0.46 0.54 0.59 0.64 0.65 0.67 0.70 0.65 0.57 0.52 0.49 0.48 0.46 0.40 0.30 0.21 0.13 0.08
0.00 0.00 0.00 0.00 0.00 0.00 0.00 0.00 0.00 0.00 0.00 0.00 0.00 0.00 0.00 0.00 0.00 0.00 0.00 0.00 0.00 0.00 0.00 0.01 0.02 0.05 0.08 0.15 0.24 0.32 0.39 0.48 0.57 0.61 0.62 0.56 0.51 0.46 0.41 0.40 0.43 0.46 0.46 0.43 0.37 0.28 0.19 0.12 0.07
0.00 0.00 0.00 0.00 0.00 0.00 0.00 0.00 0.00 0.00 0.00 0.00 0.00 0.00 0.00 0.00 0.00 0.00 0.00 0.00 0.00 0.00 0.01 0.01 0.03 0.04 0.10 0.16 0.22 0.26 0.33 0.43 0.48 0.49 0.44 0.42 0.40 0.34 0.31 0.32 0.33 0.32 0.29 0.26 0.21 0.16 0.12 0.07 0.04
0.00 0.00 0.00 0.00 0.00 0.00 0.00 0.00 0.00 0.00 0.00 0.00 0.00 0.01 0.01 0.01 0.01 0.01 0.01 0.01 0.01 0.01 0.01 0.02 0.03 0.04 0.09 0.13 0.17 0.22 0.30 0.37 0.40 0.36 0.30 0.29 0.26 0.21 0.17 0.14 0.13 0.14 0.13 0.11 0.08 0.04 0.03 0.02 0.02
0.00 0.00 0.00 0.00 0.00 0.00 0.00 0.00 0.00 0.00 0.01 0.01 0.01 0.01 0.01 0.01 0.01 0.01 0.01 0.01 0.01 0.01 0.01 0.02 0.02 0.04 0.07 0.10 0.17 0.22 0.24 0.26 0.24 0.21 0.20 0.16 0.12 0.10 0.09 0.08 0.08 0.08 0.06 0.04 0.03 0.02 0.02 0.01 0.01
0.00 0.00 0.00 0.00 0.00 0.00 0.00 0.00 0.00 0.01 0.01 0.01 0.01 0.02 0.02 0.02 0.02 0.02 0.02 0.02 0.02 0.02 0.02 0.02 0.03 0.04 0.05 0.08 0.11 0.12 0.11 0.10 0.08 0.06 0.05 0.04 0.03 0.04 0.04 0.03 0.03 0.03 0.03 0.02 0.01 0.01 0.01 0.01 0.01
0.00 0.00 0.00 0.00 0.00 0.00 0.00 0.00 0.01 0.01 0.01 0.02 0.02 0.02 0.02 0.03 0.03 0.03 0.02 0.02 0.02 0.02 0.03 0.03 0.03 0.03 0.04 0.04 0.04 0.05 0.04 0.03 0.02 0.02 0.01 0.01 0.02 0.02 0.02 0.02 0.02 0.01 0.01 0.01 0.01 0.01 0.00 0.00 0.00
0.00 0.00 0.00 0.00 0.00 0.00 0.00 0.00 0.00 0.01 0.01 0.02 0.02 0.02 0.03 0.03 0.03 0.03 0.03 0.02 0.02 0.02 0.02 0.02 0.02 0.02 0.01 0.01 0.01 0.01 0.01 0.01 0.01 0.00 0.00 0.01 0.01 0.01 0.01 0.01 0.01 0.01 0.01 0.01 0.01 0.01 0.01 0.01 0.01
0.00 0.00 0.00 0.00 0.00 0.00 0.00 0.00 0.00 0.01 0.01 0.02 0.02 0.03 0.03 0.03 0.03 0.02 0.02 0.02 0.01 0.01 0.01 0.01 0.01 0.00 0.01 0.00 0.00 0.00 0.00 0.00 0.00 0.00 0.00 0.00 0.01 0.01 0.01 0.01 0.01 0.01 0.01 0.01 0.01 0.01 0.01 0.00 0.00
0.00 0.00 0.00 0.00 0.00 0.00 0.00 0.00 0.00 0.01 0.02 0.02 0.02 0.03 0.03 0.03 0.02 0.02 0.01 0.01 0.00 0.00 0.00 0.00 0.00 0.00 0.00 0.00 0.00 0.00 0.00 0.00 0.00 0.00 0.01 0.01 0.01 0.01 0.01 0.01 0.01 0.01 0.01 0.00 0.00 0.00 0.00 0.00 0.00
MSLP
1012.48 1012.78 1013.13 1013.42 1013.57 1013.53 1013.30 1012.91 1012.44 1011.98 1011.62 1011.39 1011.29 1011.30 1011.35 1011.37 1011.33 1011.22 1011.08 1010.96 1010.96 1011.12 1011.49 1012.03 1012.69 1013.38 1013.98 1014.44 1014.72 1014.84 1014.86 1014.86 1014.93 1015.13 1015.47 1015.91 1016.40 1016.85 1017.20 1017.41 1017.47 1017.45 1017.39 1017.37 1017.42 1017.57 1017.79 1018.04 1018.25
1012.59 1012.98 1013.39 1013.70 1013.83 1013.73 1013.41 1012.91 1012.33 1011.75 1011.27 1010.95 1010.78 1010.74 1010.77 1010.80 1010.79 1010.74 1010.66 1010.62 1010.69 1010.94 1011.38 1011.99 1012.71 1013.46 1014.12 1014.63 1014.96 1015.12 1015.17 1015.19 1015.27 1015.45 1015.75 1016.15 1016.57 1016.96 1017.26 1017.42 1017.48 1017.45 1017.42 1017.43 1017.53 1017.71 1017.96 1018.22 1018.42
1012.74 1013.19 1013.62 1013.91 1014.00 1013.84 1013.44 1012.85 1012.18 1011.52 1010.96 1010.57 1010.36 1010.30 1010.32 1010.37 1010.40 1010.39 1010.38 1010.41 1010.55 1010.85 1011.34 1012.01 1012.78 1013.57 1014.29 1014.86 1015.25 1015.47 1015.57 1015.62 1015.71 1015.87 1016.13 1016.46 1016.82 1017.14 1017.38 1017.50 1017.54 1017.53 1017.53 1017.59 1017.73 1017.95 1018.21 1018.45 1018.61
1012.91 1013.38 1013.78 1014.04 1014.07 1013.84 1013.37 1012.73 1012.00 1011.30 1010.72 1010.30 1010.08 1010.01 1010.04 1010.12 1010.19 1010.23 1010.27 1010.35 1010.54 1010.89 1011.41 1012.10 1012.90 1013.72 1014.47 1015.09 1015.54 1015.82 1015.97 1016.07 1016.17 1016.32 1016.55 1016.83 1017.12 1017.38 1017.56 1017.67 1017.71 1017.72 1017.76 1017.86 1018.04 1018.28 1018.54 1018.74 1018.84
1013.06 1013.50 1013.86 1014.04 1014.00 1013.72 1013.21 1012.54 1011.80 1011.10 1010.52 1010.13 1009.91 1009.86 1009.92 1010.03 1010.13 1010.22 1010.30 1010.42 1010.65 1011.01 1011.55 1012.24 1013.03 1013.86 1014.62 1015.27 1015.76 1016.09 1016.30 1016.43 1016.56 1016.72 1016.93 1017.17 1017.41 1017.63 1017.79 1017.88 1017.94 1017.99 1018.07 1018.21 1018.42 1018.66 1018.90 1019.06 1019.09
1013.18 1013.55 1013.82 1013.92 1013.81 1013.47 1012.94 1012.27 1011.56 1010.89 1010.36 1010.00 1009.82 1009.80 1009.89 1010.02 1010.16 1010.29 1010.41 1010.57 1010.81 1011.18 1011.71 1012.37 1013.14 1013.93 1014.68 1015.32 1015.83 1016.19 1016.44 1016.62 1016.78 1016.96 1017.17 1017.39 1017.61 1017.81 1017.96 1018.07 1018.15 1018.24 1018.37 1018.54 1018.77 1019.00 1019.20 1019.30 1019.27
1013.22 1013.50 1013.67 1013.67 1013.49 1013.11 1012.57 1011.93 1011.26 1010.66 1010.18 1009.87 1009.73 1009.74 1009.85 1010.02 1010.19 1010.35 1010.51 1010.70 1010.96 1011.33 1011.83 1012.45 1013.16 1013.89 1014.59 1015.20 1015.70 1016.07 1016.35 1016.57 1016.76 1016.96 1017.18 1017.41 1017.64 1017.84 1018.00 1018.13 1018.24 1018.37 1018.53 1018.73 1018.95 1019.17 1019.34 1019.39 1019.30
1013.19 1013.36 1013.42 1013.33 1013.07 1012.66 1012.13 1011.52 1010.91 1010.37 1009.95 1009.68 1009.57 1009.61 1009.74 1009.93 1010.13 1010.34 1010.54 1010.76 1011.04 1011.41 1011.88 1012.44 1013.08 1013.73 1014.35 1014.90 1015.36 1015.72 1016.01 1016.25 1016.47 1016.71 1016.95 1017.21 1017.45 1017.67 1017.85 1018.01 1018.15 1018.30 1018.47 1018.68 1018.90 1019.09 1019.23 1019.25 1019.13
1013.09 1013.16 1013.11 1012.93 1012.61 1012.18 1011.66 1011.09 1010.53 1010.03 1009.65 1009.41 1009.32 1009.36 1009.51 1009.72 1009.95 1010.20 1010.45 1010.72 1011.03 1011.40 1011.84 1012.35 1012.91 1013.47 1014.00 1014.47 1014.88 1015.21 1015.49 1015.74 1015.99 1016.26 1016.53 1016.82 1017.08 1017.32 1017.53 1017.70 1017.86 1018.01 1018.19 1018.38 1018.58 1018.75 1018.86 1018.87 1018.76
1012.95 1012.91 1012.77 1012.52 1012.16 1011.72 1011.20 1010.66 1010.13 1009.66 1009.30 1009.06 1008.97 1009.01 1009.15 1009.38 1009.65 1009.95 1010.25 1010.58 1010.93 1011.31 1011.74 1012.20 1012.68 1013.16 1013.60 1014.00 1014.34 1014.63 1014.90 1015.16 1015.43 1015.72 1016.03 1016.34 1016.64 1016.90 1017.12 1017.30 1017.45 1017.59 1017.75 1017.91 1018.08 1018.23 1018.33 1018.34 1018.25
1012.77 1012.66 1012.45 1012.15 1011.77 1011.31 1010.80 1010.27 1009.75 1009.29 1008.92 1008.67 1008.55 1008.57 1008.71 1008.95 1009.25 1009.60 1009.97 1010.35 1010.75 1011.16 1011.59 1012.03 1012.45 1012.86 1013.24 1013.57 1013.86 1014.13 1014.38 1014.65 1014.94 1015.25 1015.59 1015.92 1016.24 1016.52 1016.74 1016.92 1017.05 1017.17 1017.29 1017.42 1017.55 1017.67 1017.75 1017.78 1017.73
1012.60 1012.45 1012.20 1011.86 1011.46 1011.00 1010.49 1009.96 1009.44 1008.96 1008.55 1008.27 1008.12 1008.11 1008.23 1008.47 1008.80 1009.19 1009.62 1010.06 1010.51 1010.96 1011.41 1011.84 1012.25 1012.62 1012.96 1013.27 1013.54 1013.79 1014.05 1014.32 1014.63 1014.97 1015.33 1015.69 1016.03 1016.31 1016.54 1016.70 1016.81 1016.90 1016.97 1017.05 1017.14 1017.22 1017.30 1017.34 1017.34
1012.46 1012.29 1012.02 1011.68 1011.27 1010.80 1010.29 1009.75 1009.20 1008.68 1008.24 1007.91 1007.71 1007.67 1007.77 1008.00 1008.34 1008.76 1009.22 1009.71 1010.21 1010.70 1011.17 1011.63 1012.05 1012.44 1012.79 1013.11 1013.40 1013.68 1013.96 1014.26 1014.59 1014.96 1015.34 1015.71 1016.06 1016.35 1016.58 1016.74 1016.83 1016.88 1016.92 1016.95 1016.99 1017.05 1017.10 1017.15 1017.18
1012.37 1012.19 1011.93 1011.59 1011.19 1010.72 1010.19 1009.63 1009.05 1008.49 1008.00 1007.62 1007.38 1007.29 1007.36 1007.57 1007.90 1008.32 1008.79 1009.30 1009.82 1010.34 1010.86 1011.35 1011.83 1012.28 1012.70 1013.08 1013.43 1013.77 1014.10 1014.45 1014.81 1015.20 1015.60 1015.99 1016.35 1016.65 1016.89 1017.05 1017.14 1017.18 1017.19 1017.18 1017.19 1017.21 1017.25 1017.29 1017.33
1012.33 1012.17 1011.92 1011.59 1011.19 1010.72 1010.18 1009.59 1008.98 1008.38 1007.85 1007.42 1007.13 1007.00 1007.03 1007.20 1007.49 1007.87 1008.32 1008.81 1009.33 1009.86 1010.41 1010.98 1011.53 1012.08 1012.61 1013.10 1013.56 1013.99 1014.40 1014.80 1015.20 1015.61 1016.02 1016.42 1016.79 1017.11 1017.37 1017.55 1017.66 1017.71 1017.72 1017.71 1017.69 1017.69 1017.69 1017.71 1017.75
1012.33 1012.18 1011.95 1011.64 1011.25 1010.78 1010.23 1009.62 1008.98 1008.35 1007.78 1007.32 1007.00 1006.83 1006.80 1006.91 1007.14 1007.45 1007.82 1008.25 1008.73 1009.26 1009.84 1010.46 1011.12 1011.79 1012.45 1013.09 1013.68 1014.23 1014.72 1015.18 1015.61 1016.03 1016.45 1016.85 1017.23 1017.58 1017.88 1018.10 1018.26 1018.36 1018.40 1018.40 1018.39 1018.37 1018.35 1018.34 1018.35
1012.34 1012.21 1012.00 1011.71 1011.34 1010.87 1010.32 1009.69 1009.04 1008.40 1007.82 1007.34 1006.99 1006.78 1006.71 1006.75 1006.88 1007.08 1007.35 1007.68 1008.09 1008.58 1009.16 1009.83 1010.59 1011.39 1012.20 1012.99 1013.73 1014.39 1014.97 1015.48 1015.94 1016.36 1016.76 1017.16 1017.56 1017.93 1018.27 1018.57 1018.80 1018.97 1019.07 1019.13 1019.14 1019.12 1019.09 1019.05 1019.01
1012.32 1012.22 1012.05 1011.79 1011.44 1010.98 1010.43 1009.82 1009.17 1008.54 1007.97 1007.50 1007.15 1006.92 1006.79 1006.75 1006.78 1006.86 1007.00 1007.20 1007.50 1007.91 1008.47 1009.17 1010.00 1010.92 1011.87 1012.80 1013.66 1014.43 1015.08 1015.62 1016.08 1016.49 1016.87 1017.26 1017.66 1018.07 1018.47 1018.84 1019.17 1019.43 1019.62 1019.75 1019.81 1019.82 1019.79 1019.73 1019.66
1012.27 1012.20 1012.07 1011.85 1011.53 1011.11 1010.59 1010.00 1009.38 1008.79 1008.26 1007.83 1007.50 1007.27 1007.11 1007.01 1006.93 1006.88 1006.87 1006.92 1007.09 1007.41 1007.92 1008.61 1009.48 1010.47 1011.52 1012.55 1013.51 1014.35 1015.05 1015.60 1016.05 1016.43 1016.78 1017.15 1017.54 1017.98 1018.43 1018.89 1019.32 1019.69 1019.99 1020.20 1020.33 1020.39 1020.37 1020.31 1020.20
1012.14 1012.13 1012.05 1011.89 1011.63 1011.25 1010.78 1010.24 1009.69 1009.16 1008.71 1008.34 1008.07 1007.87 1007.71 1007.56 1007.41 1007.24 1007.08 1006.99 1007.02 1007.22 1007.64 1008.28 1009.15 1010.16 1011.26 1012.34 1013.35 1014.22 1014.93 1015.47 1015.89 1016.23 1016.55 1016.89 1017.28 1017.74 1018.25 1018.78 1019.30 1019.78 1020.18 1020.49 1020.69 1020.80 1020.82 1020.76 1020.65
1011.95 1012.00 1012.00 1011.91 1011.71 1011.41 1011.01 1010.55 1010.09 1009.67 1009.32 1009.06 1008.87 1008.74 1008.61 1008.46 1008.25 1008.00 1007.72 1007.50 1007.39 1007.46 1007.77 1008.32 1009.13 1010.10 1011.18 1012.26 1013.27 1014.13 1014.82 1015.33 1015.71 1016.02 1016.30 1016.62 1017.02 1017.50 1018.05 1018.64 1019.23 1019.79 1020.27 1020.66 1020.93 1021.09 1021.15 1021.11 1021.00
1011.68 1011.81 1011.89 1011.89 1011.78 1011.56 1011.26 1010.91 1010.56 1010.27 1010.05 1009.92 1009.86 1009.83 1009.78 1009.66 1009.45 1009.15 1008.80 1008.47 1008.23 1008.17 1008.35 1008.79 1009.48 1010.37 1011.37 1012.39 1013.34 1014.15 1014.80 1015.28 1015.63 1015.91 1016.18 1016.50 1016.90 1017.39 1017.97 1018.60 1019.24 1019.84 1020.37 1020.80 1021.12 1021.32 1021.41 1021.39 1021.29
1011.36 1011.56 1011.72 1011.81 1011.79 1011.67 1011.48 1011.25 1011.04 1010.90 1010.84 1010.87 1010.97 1011.07 1011.12 1011.08 1010.91 1010.61 1010.23 1009.83 1009.49 1009.31 1009.35 1009.65 1010.20 1010.95 1011.83 1012.74 1013.60 1014.34 1014.95 1015.39 1015.73 1016.01 1016.29 1016.62 1017.03 1017.53 1018.12 1018.76 1019.41 1020.01 1020.55 1020.98 1021.31 1021.53 1021.63 1021.63 1021.55
1010.98 1011.25 1011.48 1011.64 1011.71 1011.70 1011.62 1011.53 1011.47 1011.48 1011.60 1011.80 1012.06 1012.32 1012.51 1012.59 1012.49 1012.24 1011.86 1011.43 1011.03 1010.75 1010.67 1010.81 1011.21 1011.80 1012.52 1013.29 1014.04 1014.71 1015.26 1015.69 1016.04 1016.34 1016.64 1017.00 1017.44 1017.95 1018.54 1019.16 1019.77 1020.34 1020.83 1021.23 1021.53 1021.72 1021.82 1021.83 1021.75
1010.57 1010.88 1011.15 1011.37 1011.52 1011.59 1011.63 1011.67 1011.76 1011.94 1012.23 1012.61 1013.04 1013.47 1013.81 1014.02 1014.03 1013.85 1013.52 1013.10 1012.67 1012.32 1012.13 1012.14 1012.38 1012.80 1013.37 1014.00 1014.64 1015.23 1015.74 1016.16 1016.53 1016.87 1017.22 1017.62 1018.08 1018.61 1019.17 1019.74 1020.29 1020.78 1021.19 1021.51 1021.74 1021.89 1021.96 1021.96 1021.89
1010.14 1010.44 1010.73 1010.98 1011.18 1011.34 1011.48 1011.65 1011.88 1012.22 1012.67 1013.22 1013.82 1014.41 1014.90 1015.24 1015.38 1015.31 1015.05 1014.67 1014.24 1013.86 1013.60 1013.50 1013.60 1013.88 1014.30 1014.80 1015.33 1015.85 1016.33 1016.75 1017.15 1017.54 1017.95 1018.39 1018.88 1019.39 1019.92 1020.43 1020.89 1021.27 1021.57 1021.79 1021.93 1022.00 1022.02 1021.99 1021.92
1009.70 1009.97 1010.24 1010.50 1010.73 1010.95 1011.18 1011.46 1011.83 1012.31 1012.91 1013.61 1014.36 1015.09 1015.72 1016.19 1016.45 1016.49 1016.32 1016.01 1015.63 1015.25 1014.95 1014.79 1014.79 1014.96 1015.26 1015.65 1016.09 1016.54 1016.99 1017.43 1017.85 1018.28 1018.73 1019.21 1019.70 1020.20 1020.68 1021.11 1021.46 1021.73 1021.91 1022.01 1022.04 1022.03 1021.99 1021.93 1021.85
1009.28 1009.49 1009.72 1009.96 1010.21 1010.48 1010.78 1011.16 1011.65 1012.26 1012.99 1013.81 1014.68 1015.52 1016.27 1016.85 1017.22 1017.37 1017.30 1017.08 1016.76 1016.42 1016.14 1015.95 1015.91 1016.00 1016.22 1016.53 1016.90 1017.30 1017.72 1018.15 1018.58 1019.03 1019.50 1019.98 1020.46 1020.93 1021.35 1021.69 1021.95 1022.10 1022.17 1022.15 1022.09 1021.99 1021.89 1021.79 1021.70
1008.94 1009.07 1009.25 1009.47 1009.72 1010.02 1010.39 1010.86 1011.45 1012.16 1013.00 1013.92 1014.87 1015.80 1016.62 1017.29 1017.75 1017.98 1018.02 1017.89 1017.66 1017.39 1017.15 1016.99 1016.95 1017.02 1017.19 1017.45 1017.77 1018.13 1018.51 1018.91 1019.32 1019.76 1020.21 1020.66 1021.11 1021.52 1021.88 1022.14 1022.31 1022.38 1022.34 1022.24 1022.09 1021.93 1021.78 1021.64 1021.53
1008.72 1008.79 1008.92 1009.11 1009.36 1009.70 1010.13 1010.67 1011.34 1012.14 1013.06 1014.04 1015.06 1016.03 1016.91 1017.62 1018.14 1018.45 1018.57 1018.53 1018.40 1018.22 1018.07 1017.97 1017.95 1018.04 1018.20 1018.43 1018.72 1019.03 1019.36 1019.71 1020.07 1020.45 1020.85 1021.25 1021.64 1021.99 1022.28 1022.48 1022.59 1022.58 1022.49 1022.33 1022.13 1021.91 1021.71 1021.55 1021.41
Thickness
5779 5786 5793 5794 5788 5787 5788 5795 5802 5805 5808 5814 5814 5812 5806 5802 5795 5787 5804 5812 5807 5801 5792 5781 5776 5773 5771 5769 5768 5767 5765 5762 5760 5758 5756 5754 5752 5750 5748 5747 5745 5744 5744 5743 5743 5742 5742 5741 5740
5782 5786 5787 5787 5774 5773 5786 5796 5797 5803 5808 5814 5814 5808 5804 5804 5805 5802 5804 5806 5803 5798 5790 5782 5774 5771 5768 5766 5765 5763 5761 5759 5757 5754 5752 5750 5748 5746 5744 5743 5741 5741 5740 5739 5739 5738 5737 5736 5736
5780 5782 5778 5776 5769 5772 5783 5794 5799 5807 5813 5811 5809 5810 5806 5802 5804 5803 5806 5804 5800 5794 5788 5781 5772 5769 5766 5764 5762 5760 5758 5756 5754 5752 5749 5747 5745 5743 5741 5739 5738 5737 5737 5736 5735 5734 5733 5732 5732
5776 5774 5773 5764 5765 5783 5787 5794 5801 5803 5810 5813 5810 5805 5809 5809 5808 5809 5806 5803 5797 5792 5787 5779 5771 5767 5764 5762 5759 5758 5756 5753 5751 5749 5746 5744 5742 5739 5738 5736 5735 5734 5733 5733 5732 5731 5730 5729 5728
5774 5767 5758 5758 5770 5786 5794 5797 5801 5799 5803 5808 5807 5803 5803 5809 5812 5810 5804 5801 5796 5792 5787 5779 5770 5766 5763 5760 5757 5755 5753 5751 5749 5746 5744 5741 5739 5737 5735 5733 5732 5731 5731 5730 5729 5727 5726 5726 5725
5763 5762 5749 5755 5772 5787 5793 5799 5800 5801 5806 5811 5808 5804 5805 5810 5808 5806 5805 5801 5798 5792 5787 5779 5769 5765 5762 5759 5756 5754 5751 5749 5746 5744 5742 5739 5737 5734 5733 5731 5730 5729 5728 5727 5726 5725 5724 5723 5722
5758 5755 5753 5762 5770 5778 5789 5800 5798 5801 5804 5812 5816 5804 5806 5807 5809 5808 5805 5801 5799 5794 5789 5781 5773 5766 5761 5758 5755 5752 5750 5747 5744 5742 5740 5737 5735 5732 5730 5729 5727 5726 5725 5724 5723 5722 5721 5720 5720
5765 5758 5755 5762 5764 5773 5792 5797 5803 5803 5808 5823 5820 5807 5807 5809 5811 5808 5804 5800 5798 5794 5790 5785 5778 5772 5765 5760 5755 5751 5748 5745 5743 5740 5738 5735 5733 5731 5728 5727 5725 5724 5723 5722 5720 5719 5718 5717 5717
5760 5748 5752 5762 5764 5776 5790 5791 5803 5812 5812 5816 5821 5821 5821 5818 5811 5804 5799 5795 5794 5791 5789 5787 5782 5775 5770 5766 5758 5751 5747 5744 5741 5739 5736 5734 5735 5734 5729 5727 5724 5722 5721 5719 5718 5717 5716 5715 5715
5751 5745 5757 5771 5775 5779 5785 5789 5797 5803 5804 5808 5814 5818 5818 5813 5807 5801 5797 5794 5791 5789 5789 5788 5784 5777 5772 5768 5760 5755 5751 5747 5744 5743 5739 5736 5736 5735 5732 5726 5722 5720 5718 5717 5716 5715 5714 5715 5719
5752 5751 5762 5766 5773 5777 5780 5788 5799 5797 5800 5811 5813 5814 5813 5810 5807 5804 5801 5800 5797 5794 5790 5789 5784 5778 5774 5769 5763 5759 5755 5751 5747 5745 5740 5737 5735 5732 5730 5727 5722 5719 5717 5718 5715 5715 5718 5718 5717
5749 5753 5757 5764 5773 5774 5778 5787 5793 5799 5809 5824 5826 5825 5816 5811 5811 5808 5806 5804 5800 5796 5791 5789 5785 5778 5773 5770 5765 5760 5757 5752 5750 5744 5739 5737 5734 5731 5730 5726 5725 5721 5719 5717 5717 5716 5715 5713 5711
5743 5749 5755 5762 5769 5774 5778 5783 5790 5801 5818 5825 5825 5823 5817 5816 5816 5815 5812 5808 5803 5797 5793 5790 5785 5778 5771 5766 5763 5760 5757 5753 5748 5743 5737 5734 5732 5729 5726 5723 5719 5719 5717 5714 5712 5713 5710 5709 5708
5749 5751 5754 5761 5768 5773 5773 5783 5790 5802 5817 5819 5819 5819 5819 5819 5819 5815 5811 5807 5804 5799 5794 5790 5783 5776 5768 5763 5760 5758 5754 5748 5746 5741 5736 5731 5728 5725 5721 5718 5714 5713 5711 5710 5707 5706 5703 5703 5702
5749 5743 5750 5759 5765 5773 5774 5774 5789 5805 5812 5812 5815 5817 5818 5820 5820 5817 5815 5810 5806 5800 5795 5788 5782 5776 5768 5763 5758 5755 5751 5747 5742 5737 5732 5726 5722 5718 5714 5712 5708 5706 5704 5700 5698 5697 5696 5695 5693
5739 5736 5739 5760 5765 5771 5764 5768 5795 5805 5806 5806 5812 5815 5815 5818 5821 5821 5819 5813 5808 5802 5795 5788 5783 5776 5768 5761 5756 5753 5749 5743 5737 5731 5726 5721 5716 5711 5707 5703 5699 5696 5694 5692 5690 5689 5688 5686 5685
5730 5732 5739 5751 5762 5767 5764 5772 5791 5801 5801 5802 5808 5812 5813 5816 5818 5821 5820 5815 5809 5803 5796 5788 5783 5776 5767 5760 5753 5749 5743 5737 5732 5726 5722 5715 5709 5704 5698 5693 5689 5684 5682 5680 5680 5677 5676 5674 5673
5727 5733 5736 5744 5756 5757 5759 5769 5783 5794 5796 5799 5804 5808 5810 5812 5816 5820 5818 5815 5809 5803 5796 5789 5781 5774 5766 5758 5751 5744 5738 5732 5726 5721 5716 5709 5703 5696 5689 5683 5679 5675 5671 5668 5666 5663 5662 5661 5660
5728 5729 5730 5739 5750 5748 5753 5761 5774 5785 5789 5793 5797 5802 5805 5809 5815 5817 5815 5812 5808 5802 5795 5788 5780 5773 5764 5757 5749 5741 5734 5727 5721 5715 5709 5703 5697 5689 5681 5676 5670 5666 5663 5660 5657 5654 5652 5650 5649
5716 5716 5723 5732 5740 5740 5745 5753 5769 5778 5780 5784 5786 5790 5794 5799 5804 5806 5807 5806 5803 5798 5793 5786 5779 5773 5765 5758 5749 5741 5732 5723 5716 5709 5704 5698 5692 5685 5677 5671 5666 5661 5656 5653 5650 5646 5644 5642 5641
5708 5712 5720 5723 5733 5738 5736 5743 5759 5771 5775 5775 5778 5781 5785 5786 5789 5792 5795 5796 5796 5793 5790 5785 5779 5772 5764 5755 5745 5735 5725 5717 5709 5703 5698 5693 5686 5679 5672 5666 5659 5654 5650 5647 5643 5640 5638 5636 5633
5702 5718 5718 5718 5718 5730 5732 5733 5754 5762 5761 5761 5763 5767 5769 5773 5777 5781 5784 5785 5786 5786 5784 5780 5774 5767 5759 5751 5741 5732 5723 5714 5707 5699 5692 5685 5678 5672 5666 5660 5654 5649 5645 5641 5637 5633 5631 5628 5627
5709 5721 5717 5716 5715 5718 5725 5723 5750 5751 5748 5747 5746 5748 5751 5755 5760 5764 5767 5769 5771 5772 5771 5768 5763 5756 5750 5743 5734 5725 5717 5709 5700 5692 5685 5678 5671 5665 5659 5653 5647 5642 5638 5633 5629 5625 5622 5620 5618
5711 5709 5708 5710 5713 5702 5721 5720 5734 5740 5731 5730 5731 5730 5731 5736 5740 5744 5748 5751 5753 5755 5754 5752 5747 5741 5736 5729 5723 5715 5707 5698 5690 5683 5676 5669 5663 5655 5649 5644 5638 5633 5628 5624 5619 5615 5611 5608 5603
5700 5694 5688 5691 5695 5706 5726 5719 5726 5719 5720 5719 5716 5714 5716 5719 5722 5725 5728 5731 5733 5734 5734 5732 5729 5723 5718 5713 5707 5701 5695 5688 5680 5674 5666 5659 5652 5644 5636 5631 5626 5621 5616 5611 5607 5602 5598 5594 5590
5694 5697 5692 5693 5702 5716 5713 5716 5713 5713 5710 5708 5706 5703 5702 5703 5705 5706 5708 5711 5713 5714 5714 5713 5710 5705 5701 5696 5690 5686 5681 5675 5669 5661 5654 5646 5638 5630 5624 5618 5612 5607 5603 5598 5593 5590 5585 5580 5575
5693 5696 5713 5707 5708 5709 5716 5709 5702 5703 5698 5695 5693 5690 5687 5686 5688 5689 5691 5693 5694 5695 5694 5694 5692 5688 5684 5680 5675 5670 5664 5658 5651 5644 5638 5630 5623 5616 5610 5604 5598 5593 5588 5583 5579 5575 5569 5564 5561
5705 5705 5698 5693 5686 5690 5705 5704 5707 5695 5688 5684 5681 5677 5674 5673 5673 5674 5675 5676 5678 5678 5678 5678 5676 5673 5669 5665 5660 5654 5648 5641 5635 5629 5622 5615 5608 5602 5595 5588 5582 5576 5571 5566 5562 5557 5552 5549 5545
5689 5692 5694 5698 5705 5697 5696 5706 5707 5698 5686 5678 5671 5667 5663 5660 5659 5659 5660 5661 5662 5663 5663 5662 5660 5657 5653 5648 5642 5637 5631 5624 5618 5611 5604 5597 5590 5583 5577 5571 5565 5559 5554 5549 5545 5542 5537 5533 5529
5697 5696 5694 5686 5689 5697 5702 5691 5693 5688 5680 5672 5663 5657 5653 5649 5647 5646 5647 5647 5648 5647 5647 5645 5643 5639 5634 5629 5624 5618 5613 5606 5600 5593 5585 5578 5572 5565 5559 5553 5547 5541 5536 5532 5528 5524 5520 5517 5513